Bergamo, Italy

7:30 AM CET on February 28, 2017 (GMT +0100)
Bergamo

Weather History for LIME - February, 2013

Change the Weather History Date:

Monday, February 25, 2013

  Actual Average Record
Temperature  
Mean Temperature 34 °F -  
Max Temperature 37 °F 53 °F 64 °F (1998)
Min Temperature 32 °F 37 °F 23 °F (2004)
Degree Days  
Heating Degree Days 30    
Moisture  
Dew Point 34 °F    
Average Humidity 93    
Maximum Humidity 100    
Minimum Humidity 87    
Precipitation  
Precipitation 0.00 in 0.10 in - ()
Sea Level Pressure  
Sea Level Pressure 29.98 in    
Wind  
Wind Speed 4 mph ()    
Max Wind Speed 10 mph    
Max Gust Speed -    
Visibility 3.7 miles    
Events Rain , Snow    
Averages and records for this station are not official NWS values.
T = Trace of Precipitation, MM = Missing Value Source: Averaged Metar Reports

Daily Weather History Graph

Daily Weather History Graph

Search for Another Location

Airport or City:

Trip Planner

Search our weather history database for the weather conditions in past years. The results will help you decide how hot, cold, wet, or windy it might be!

Date:

Astronomy

Feb. 25, 2013 Rise Set
Actual Time 7:06 AM CET 6:02 PM CET
Civil Twilight 6:36 AM CET 6:32 PM CET
Nautical Twilight 6:02 AM CET 7:06 PM CET
Astronomical Twilight 5:28 AM CET 7:41 PM CET
Moon 6:00 PM CET (2/25) 6:27 AM CET (2/25)
Length of Visible Light 11h 55m
Length of Day
10h 55m
Full, 100% of the Moon is Illuminated
Feb 25
Full
Feb 25
Full
Mar 4
Last Quarter
Mar 11
New
Mar 19
First Quarter

Hourly Weather History & Observations

Time (CET) Temp. Windchill Dew Point Humidity Pressure Visibility Wind Dir Wind Speed Gust Speed Precip Events Conditions
12:20 AM 33.8 °F 30.8 °F 32.0 °F 93% 29.83 in 1.2 mi West 3.5 mph - N/A Snow Light Snow
12:50 AM 32.0 °F 26.4 °F 32.0 °F 100% 29.83 in 1.2 mi West 5.8 mph - N/A   Mostly Cloudy
1:20 AM 32.0 °F 26.4 °F 32.0 °F 100% 29.83 in 1.2 mi WNW 5.8 mph - N/A   Mostly Cloudy
1:50 AM 33.8 °F 29.6 °F 33.8 °F 100% 29.83 in 1.9 mi North 4.6 mph - N/A Rain Light Rain
2:20 AM 33.8 °F - 33.8 °F 100% 29.86 in 0.9 mi Variable 2.3 mph - N/A Snow Snow Showers
2:50 AM 33.8 °F - 32.0 °F 93% 29.86 in 1.9 mi Variable 2.3 mph - N/A Rain Rain
3:20 AM 33.8 °F 28.6 °F 33.8 °F 100% 29.86 in 1.9 mi North 5.8 mph - N/A Rain Rain
3:50 AM 33.8 °F 29.6 °F 33.8 °F 100% 29.86 in 1.9 mi North 4.6 mph - N/A   Mostly Cloudy
4:20 AM 33.8 °F 30.8 °F 33.8 °F 100% 29.86 in 1.9 mi North 3.5 mph - N/A   Mostly Cloudy
4:50 AM 33.8 °F - 33.8 °F 100% 29.86 in 1.9 mi NE 2.3 mph - N/A   Mostly Cloudy
5:20 AM 33.8 °F 28.6 °F 33.8 °F 100% 29.89 in 1.9 mi ENE 5.8 mph - N/A   Mostly Cloudy
5:50 AM 33.8 °F 29.6 °F 33.8 °F 100% 29.89 in 1.9 mi East 4.6 mph - N/A   Mostly Cloudy
6:20 AM 33.8 °F 29.6 °F 33.8 °F 100% 29.89 in 2.5 mi ESE 4.6 mph - N/A Rain Rain
6:50 AM 33.8 °F - 33.8 °F 100% 29.89 in 3.7 mi Variable 2.3 mph - N/A Rain Light Rain
7:20 AM 33.8 °F 27.0 °F 32.0 °F 93% 29.92 in 0.6 mi ENE 8.1 mph - N/A Snow Snow
7:50 AM 33.8 °F 25.8 °F 33.8 °F 100% 29.92 in 1.9 mi NNE 10.4 mph - N/A Rain Rain
8:20 AM 35.6 °F 28.6 °F 33.8 °F 93% 29.95 in 5.0 mi NNE 9.2 mph - N/A   Mostly Cloudy
8:50 AM 35.6 °F 29.9 °F 33.8 °F 93% 29.95 in 4.3 mi ENE 6.9 mph - N/A Rain Light Rain
9:20 AM 35.6 °F 30.7 °F 33.8 °F 93% 29.95 in 5.0 mi NNE 5.8 mph - N/A Rain Light Rain
9:50 AM 33.8 °F 26.4 °F 32.0 °F 93% 29.98 in 0.6 mi East 9.2 mph - N/A Snow Snow
10:20 AM 33.8 °F - 33.8 °F 100% 29.98 in 5.0 mi ENE 2.3 mph - N/A Rain Light Rain
11:20 AM 37.4 °F 33.8 °F 33.8 °F 87% 29.98 in 6.2 mi NNW 4.6 mph - N/A   Scattered Clouds
11:50 AM 37.4 °F - 33.8 °F 87% 30.01 in 6.2 mi Variable 2.3 mph - N/A   Scattered Clouds
12:20 PM 37.4 °F 30.8 °F 33.8 °F 87% 30.01 in 3.1 mi East 9.2 mph - N/A Rain Light Rain
12:50 PM 37.4 °F - 33.8 °F 87% 30.01 in 6.2 mi Variable 2.3 mph - N/A Rain Light Rain
1:20 PM 37.4 °F 34.9 °F 33.8 °F 87% 30.01 in 4.3 mi SW 3.5 mph - N/A Rain Light Rain
1:50 PM 37.4 °F - 33.8 °F 87% 30.01 in 6.2 mi Variable 2.3 mph - N/A   Mostly Cloudy
2:20 PM 37.4 °F - 33.8 °F 87% 30.01 in 5.0 mi Variable 2.3 mph - N/A Rain Light Rain
2:50 PM 37.4 °F - 33.8 °F 87% 30.01 in 5.0 mi WNW 2.3 mph - N/A   Mostly Cloudy
3:20 PM 37.4 °F 31.4 °F 33.8 °F 87% 30.04 in 5.0 mi SSE 8.1 mph - N/A Rain Light Rain
3:50 PM 35.6 °F 28.6 °F 33.8 °F 93% 30.04 in 1.9 mi ESE 9.2 mph - N/A Rain , Snow Light Rain
4:20 PM 35.6 °F 31.7 °F 33.8 °F 93% 30.04 in 1.9 mi East 4.6 mph - N/A Rain Light Rain
4:50 PM 35.6 °F 29.2 °F 33.8 °F 93% 30.04 in 3.1 mi North 8.1 mph - N/A   Mostly Cloudy
5:20 PM 35.6 °F 28.6 °F 33.8 °F 93% 30.04 in 5.0 mi North 9.2 mph - N/A   Mostly Cloudy
5:50 PM 35.6 °F 30.7 °F 33.8 °F 93% 30.04 in 5.0 mi North 5.8 mph - N/A   Mostly Cloudy
6:20 PM 37.4 °F 32.1 °F 33.8 °F 87% 30.06 in 5.0 mi NNE 6.9 mph - N/A   Mostly Cloudy
6:50 PM 35.6 °F 32.8 °F 33.8 °F 93% 30.06 in 4.3 mi East 3.5 mph - N/A   Mostly Cloudy
7:20 PM 35.6 °F 32.8 °F 33.8 °F 93% 30.09 in 4.3 mi West 3.5 mph - N/A   Mostly Cloudy
7:50 PM 35.6 °F 29.9 °F 33.8 °F 93% 30.09 in 3.7 mi North 6.9 mph - N/A Rain Light Rain
8:20 PM 35.6 °F 31.7 °F 33.8 °F 93% 30.09 in 5.0 mi North 4.6 mph - N/A   Mostly Cloudy
8:50 PM 37.4 °F 33.8 °F 33.8 °F 87% 30.12 in 5.0 mi NE 4.6 mph - N/A   Mostly Cloudy
9:20 PM 37.4 °F - 33.8 °F 87% 30.12 in 5.0 mi Variable 1.2 mph - N/A   Mostly Cloudy
9:50 PM 37.4 °F - 33.8 °F 87% 30.12 in 5.0 mi Variable 2.3 mph - N/A   Mostly Cloudy
10:20 PM 35.6 °F - 33.8 °F 93% 30.15 in 6.2 mi Variable 2.3 mph - N/A   Mostly Cloudy
10:50 PM 35.6 °F - 33.8 °F 93% 30.15 in 6.2 mi North 2.3 mph - N/A   Mostly Cloudy
11:20 PM 35.6 °F - 33.8 °F 93% 30.12 in 6.2 mi Variable 1.2 mph - N/A   Mostly Cloudy
11:50 PM 35.6 °F 29.2 °F 33.8 °F 93% 30.12 in 6.2 mi North 8.1 mph - N/A   Mostly Cloudy